INMARSAT 3-F5

Last updated on Thu Nov 21 2024 00:02:40 GMT+0000 (Coordinated Universal Time)

1 25153U 98006B 24325.21304611 -.00000290 00000+0 00000+0 0 9993 2 25153 8.4004 58.7018 0005371 189.8108 193.9533 1.00271004 98144
UTC large
Height (km)
Speed (km/s)
/
Latitude / Longitude
Inclination (degrees)
Orbital Period (minutes)
Azimuth
Elevation
Range (km)
Doppler Factor

Next 0 passes for location: London (51.5072 / 0.1276)

Sorry there are no passes over London.